Location: Unspecified
(41.5000°N, 0.0000°E)
Time: 12:03:36
(UTC+00:00)

deb Explorer IX - Pass Details

Date: 26 June 2019
Orbit: 539 x 1112 km, 38.8° (Epoch: 19 July)

Event Time Altitude Azimuth Distance (km) Brightness Sun altitude
Rises 10:05:33 0° 195° (SSW) 3,429 ? 59.6°
Reaches altitude 10° 10:09:04 10° 173° (S) 2,614 ? 60.1°
Maximum altitude 10:12:38 16° 139° (SE) 2,334 ? 60.7°
Drops below altitude 10° 10:16:27 10° 105° (ESE) 2,824 ? 61.3°
Sets 10:20:28 0° 85° (E) 3,860 ? 62.0°
